Change the Weather History Date:

Tuesday, January 1, 2013

  Actual Average Record
Temperature  
Mean Temperature 18 °F -  
Max Temperature 33 °F 41 °F 59 °F (1964)
Min Temperature 3 °F 11 °F -14 °F (2011)
Degree Days  
Heating Degree Days 47    
Moisture  
Dew Point 11 °F    
Average Humidity 78    
Maximum Humidity 92    
Minimum Humidity 48    
Precipitation  
Precipitation 0.00 in - - ()
Sea Level Pressure  
Sea Level Pressure 30.15 in    
Wind  
Wind Speed 6 mph (NNW)    
Max Wind Speed 17 mph    
Max Gust Speed 21 mph    
Visibility 10 miles    
Events      
Averages and records for this station are not official NWS values.
T = Trace of Precipitation, MM = Missing Value Source: NWS Daily Summary

Daily Weather History Graph

Daily Weather History Graph

Search for Another Location

Airport or City:

Trip Planner

Search our weather history database for the weather conditions in past years. The results will help you decide how hot, cold, wet, or windy it might be!

Date:

Astronomy

Jan. 01, 2013 Rise Set
Actual Time 7:20 AM MST 5:10 PM MST
Civil Twilight 6:52 AM MST 5:38 PM MST
Nautical Twilight 6:20 AM MST 6:10 PM MST
Astronomical Twilight 5:49 AM MST 6:41 PM MST
Moon 9:33 PM MST (1/1) 9:43 AM MST (1/1)
Length of Visible Light 10h 46m
Length of Day
9h 50m
Waning Gibbous, 83% of the Moon is Illuminated
Jan 1
Waning Gibbous
Jan 4
Last Quarter
Jan 11
New
Jan 18
First Quarter
Jan 26
Full

Hourly Weather History & Observations

Time (MST) Temp. Windchill Dew Point Humidity Pressure Visibility Wind Dir Wind Speed Gust Speed Precip Events Conditions
12:15 AM 15.3 °F 7.9 °F 12.2 °F 88% 30.07 in 10.0 mi NW 4.6 mph - N/A   Clear
12:35 AM 16.3 °F 7.8 °F 14.0 °F 90% 30.07 in 10.0 mi WNW 5.8 mph - N/A   Clear
12:55 AM 16.2 °F 9.0 °F 13.8 °F 90% 30.07 in 10.0 mi WNW 4.6 mph - N/A   Clear
1:15 AM 15.6 °F 7.0 °F 13.6 °F 92% 30.07 in 10.0 mi WNW 5.8 mph - N/A   Clear
1:35 AM 15.6 °F 8.3 °F 13.6 °F 92% 30.08 in 10.0 mi West 4.6 mph - N/A   Clear
1:55 AM 14.7 °F 7.3 °F 12.6 °F 91% 30.08 in 10.0 mi WNW 4.6 mph - N/A   Clear
2:15 AM 11.8 °F - 9.7 °F 91% 30.08 in 10.0 mi Calm Calm - N/A   Clear
2:35 AM 12.7 °F 6.7 °F 10.8 °F 92% 30.09 in 10.0 mi NW 3.5 mph - N/A   Clear
2:55 AM 12.2 °F 1.7 °F 10.0 °F 91% 30.10 in 10.0 mi NW 6.9 mph - N/A   Clear
3:15 AM 13.1 °F 4.0 °F 10.8 °F 90% 30.10 in 10.0 mi WNW 5.8 mph - N/A   Clear
3:35 AM 13.6 °F 4.6 °F 10.9 °F 89% 30.10 in 10.0 mi WNW 5.8 mph - N/A   Clear
3:55 AM 14.2 °F 5.3 °F 11.5 °F 89% 30.10 in 10.0 mi WNW 5.8 mph - N/A   Clear
4:15 AM 14.5 °F 5.7 °F 11.7 °F 88% 30.10 in 10.0 mi WNW 5.8 mph - N/A   Clear
4:35 AM 12.6 °F 2.2 °F 9.9 °F 89% 30.11 in 10.0 mi West 6.9 mph - N/A   Clear
4:55 AM 13.6 °F 4.6 °F 10.8 °F 88% 30.12 in 10.0 mi West 5.8 mph - N/A   Clear
5:15 AM 13.1 °F 2.8 °F 10.4 °F 89% 30.12 in 10.0 mi WNW 6.9 mph - N/A   Clear
5:35 AM 12.0 °F - 9.3 °F 89% 30.12 in 10.0 mi Calm Calm - N/A   Clear
5:55 AM 9.0 °F - 6.1 °F 88% 30.12 in 10.0 mi Calm Calm - N/A   Clear
6:15 AM 5.2 °F -1.9 °F 1.8 °F 86% 30.13 in 10.0 mi NW 3.5 mph - N/A   Clear
6:35 AM 4.8 °F - 1.9 °F 88% 30.13 in 10.0 mi Calm Calm - N/A   Clear
6:55 AM 7.3 °F 0.5 °F 3.9 °F 86% 30.13 in 10.0 mi North 3.5 mph - N/A   Clear
7:15 AM 3.2 °F -4.2 °F 0.7 °F 89% 30.14 in 10.0 mi NW 3.5 mph - N/A   Clear
7:35 AM 4.6 °F -2.5 °F 1.4 °F 86% 30.15 in 10.0 mi NNW 3.5 mph - N/A   Clear
7:55 AM 6.8 °F -0.1 °F 4.3 °F 89% 30.16 in 10.0 mi NW 3.5 mph - N/A   Clear
8:15 AM 9.3 °F - 6.6 °F 89% 30.16 in 10.0 mi Calm Calm - N/A   Clear
8:35 AM 12.9 °F 5.2 °F 10.0 °F 88% 30.18 in 10.0 mi NW 4.6 mph - N/A   Clear
8:55 AM 14.4 °F 5.5 °F 11.5 °F 88% 30.19 in 10.0 mi NW 5.8 mph - N/A   Clear
9:15 AM 15.8 °F 5.1 °F 12.6 °F 87% 30.20 in 10.0 mi NW 8.1 mph - N/A   Clear
9:35 AM 18.3 °F 8.2 °F 14.9 °F 86% 30.20 in 10.0 mi NW 8.1 mph - N/A   Clear
9:55 AM 21.2 °F 11.7 °F 17.1 °F 84% 30.20 in 10.0 mi NNW 8.1 mph - N/A   Clear
10:15 AM 24.3 °F 17.3 °F 17.6 °F 76% 30.20 in 10.0 mi NNW 5.8 mph - N/A   Clear
10:35 AM 25.5 °F 17.8 °F 17.1 °F 70% 30.18 in 10.0 mi North 6.9 mph - N/A   Clear
10:55 AM 27.1 °F 18.9 °F 17.2 °F 66% 30.16 in 10.0 mi North 8.1 mph - N/A   Clear
11:15 AM 27.7 °F 20.4 °F 17.2 °F 65% 30.15 in 10.0 mi North 6.9 mph - N/A   Clear
11:35 AM 29.5 °F 23.4 °F 17.6 °F 61% 30.13 in 10.0 mi NNW 5.8 mph - N/A   Clear
11:55 AM 29.8 °F 22.2 °F 17.1 °F 59% 30.13 in 10.0 mi NNW 8.1 mph - N/A   Clear
12:15 PM 30.6 °F 23.1 °F 16.9 °F 57% 30.12 in 10.0 mi North 8.1 mph - N/A   Clear
12:35 PM 32.0 °F 22.5 °F 16.9 °F 54% 30.12 in 10.0 mi NNE 12.7 mph - N/A   Clear
12:55 PM 32.4 °F 24.0 °F 16.5 °F 52% 30.10 in 10.0 mi North 10.4 mph - N/A   Clear
1:15 PM 32.9 °F 25.3 °F 15.8 °F 49% 30.10 in 10.0 mi NNE 9.2 mph - N/A   Clear
1:35 PM 32.9 °F 23.7 °F 15.1 °F 48% 30.11 in 10.0 mi North 12.7 mph - N/A   Clear
1:55 PM 33.1 °F 23.4 °F 15.3 °F 48% 30.10 in 10.0 mi NNW 13.8 mph 19.6 mph N/A   Clear
2:15 PM 32.0 °F 22.1 °F 14.9 °F 49% 30.11 in 10.0 mi North 13.8 mph 19.6 mph N/A   Scattered Clouds
2:35 PM 32.9 °F 22.0 °F 15.3 °F 48% 30.10 in 10.0 mi North 17.3 mph 20.7 mph N/A   Mostly Cloudy
2:55 PM 32.2 °F 22.3 °F 15.4 °F 50% 30.12 in 10.0 mi North 13.8 mph 20.7 mph N/A   Overcast
3:15 PM 29.8 °F 20.3 °F 15.4 °F 55% 30.12 in 10.0 mi North 11.5 mph 18.4 mph N/A   Overcast
3:35 PM 31.3 °F 21.1 °F 15.4 °F 52% 30.12 in 10.0 mi North 13.8 mph 18.4 mph N/A   Overcast
3:55 PM 30.9 °F 21.2 °F 15.4 °F 53% 30.13 in 10.0 mi North 12.7 mph 18.4 mph N/A   Mostly Cloudy
4:15 PM 29.7 °F 20.1 °F 14.7 °F 54% 30.14 in 10.0 mi North 11.5 mph 16.1 mph N/A   Mostly Cloudy
4:35 PM 27.9 °F 17.8 °F 14.0 °F 56% 30.14 in 10.0 mi NNE 11.5 mph - N/A   Overcast
4:55 PM 26.1 °F 16.2 °F 14.2 °F 61% 30.15 in 10.0 mi NNE 10.4 mph - N/A   Mostly Cloudy
5:15 PM 24.6 °F 16.7 °F 14.5 °F 66% 30.16 in 10.0 mi North 6.9 mph - N/A   Scattered Clouds
5:35 PM 23.0 °F 15.8 °F 14.2 °F 69% 30.18 in 10.0 mi NNW 5.8 mph - N/A   Scattered Clouds
5:55 PM 20.3 °F 11.5 °F 13.6 °F 75% 30.18 in 10.0 mi NNW 6.9 mph - N/A   Scattered Clouds
6:15 PM 20.5 °F 15.6 °F 13.5 °F 74% 30.18 in 10.0 mi WNW 3.5 mph - N/A   Scattered Clouds
6:35 PM 19.0 °F 12.3 °F 13.3 °F 78% 30.20 in 10.0 mi NW 4.6 mph - N/A   Clear
6:55 PM 16.2 °F - 12.4 °F 85% 30.20 in 10.0 mi Calm Calm - N/A   Clear
7:15 PM 14.7 °F 9.0 °F 11.1 °F 86% 30.20 in 10.0 mi NW 3.5 mph - N/A   Clear
7:35 PM 13.8 °F 8.0 °F 10.6 °F 87% 30.21 in 10.0 mi NW 3.5 mph - N/A   Clear
7:55 PM 14.0 °F 5.1 °F 10.8 °F 87% 30.21 in 10.0 mi North 5.8 mph - N/A   Clear
8:15 PM 11.7 °F - 9.3 °F 90% 30.21 in 10.0 mi Calm Calm - N/A   Clear
8:35 PM 9.7 °F 3.2 °F 7.2 °F 90% 30.20 in 10.0 mi NNW 3.5 mph - N/A   Clear
8:55 PM 11.1 °F 3.1 °F 8.1 °F 87% 30.20 in 10.0 mi NW 4.6 mph - N/A   Clear
9:15 PM 10.8 °F 0.0 °F 8.2 °F 90% 30.20 in 10.0 mi NW 6.9 mph - N/A   Clear
9:35 PM 10.9 °F 0.2 °F 8.4 °F 90% 30.20 in 10.0 mi NNW 6.9 mph - N/A   Clear
9:55 PM 9.7 °F -1.3 °F 7.2 °F 90% 30.21 in 10.0 mi NW 6.9 mph - N/A   Clear
10:15 PM 8.6 °F -1.3 °F 5.9 °F 89% 30.22 in 10.0 mi NW 5.8 mph - N/A   Clear
10:35 PM 7.3 °F -2.8 °F 4.5 °F 88% 30.22 in 10.0 mi NNW 5.8 mph - N/A   Clear
10:55 PM 7.5 °F -5.0 °F 5.0 °F 89% 30.21 in 10.0 mi NNW 8.1 mph - N/A   Clear
11:15 PM 7.5 °F -2.6 °F 4.8 °F 89% 30.22 in 10.0 mi NW 5.8 mph - N/A   Clear
11:35 PM 6.8 °F -6.9 °F 3.9 °F 88% 30.22 in 10.0 mi NW 9.2 mph - N/A   Clear
11:55 PM 7.3 °F -7.9 °F 4.3 °F 87% 30.22 in 10.0 mi NW 11.5 mph - N/A   Clear